Location: ActonStarParty
(42.4766°N, 71.4538°W)
Time: 17:35:41
(UTC-04:00)

Amateur Radio Satellites - All Passes

Search period start: 22 August 2014 17:05
Search period end: 23 August 2014 17:05
Location: ActonStarParty, 42.4766°N, 71.4538°W

Satellite Date Start Highest point End Downlink Frequencies (MHz)
Time Altitude Azimuth
ISS 22 Aug 17:07:50 17:10:05 17° 359° (N) 17:12:21 145.800 FM
Uosat F 22 Aug 17:07:51 17:12:08 28° 264° (W) 17:16:27 435.120 FM
Hamsat 22 Aug 17:46:51 17:51:06 73° 75° (ENE) 17:55:26 145.90 MHz
PCSat 22 Aug 17:47:29 17:50:57 18° 105° (ESE) 17:54:26 145.825 MHz
OPAL 22 Aug 17:55:34 18:00:36 51° 292° (WNW) 18:05:38 ?
JAS-2 22 Aug 17:58:52 18:05:36 87° 75° (ENE) 18:11:32 435.800 - 435.900 CW/SSB, 435.910 FM
AO-7 22 Aug 18:09:45 18:14:53 18° 271° (W) 18:20:03 29.400 - 29.500 MHz
UOSAT-12 22 Aug 18:15:32 18:17:41 13° 252° (WSW) 18:19:48 437.025 FM, 437.400 FM
SO-67 22 Aug 18:35:36 18:38:43 32° 72° (ENE) 18:41:51 435.3500 MHz FM
RS-15 22 Aug 18:37:24 18:48:29 81° 240° (WSW) 19:00:01 29.354 - 29.394 USB, Beacon 29.352 USB
ISS 22 Aug 18:44:48 18:47:39 25° 19° (NNE) 18:50:30 145.800 FM
Sapphire 22 Aug 18:57:57 19:03:17 66° 116° (ESE) 19:08:40 437.095 MHz 1200 baud AX-25 AFSK
STRAND 1 22 Aug 19:24:26 19:29:27 57° 101° (E) 19:34:27 ?
PCSat 22 Aug 19:28:24 19:33:47 67° 302° (WNW) 19:39:12 145.825 MHz
JAS-2 22 Aug 19:47:46 19:51:10 15° 270° (W) 19:54:25 435.800 - 435.900 CW/SSB, 435.910 FM
HO-68 22 Aug 20:01:27 20:08:01 41° 64° (ENE) 20:14:35 435.675 MHz FM
SO-67 22 Aug 20:09:53 20:11:53 15° 268° (W) 20:13:52 435.3500 MHz FM
ISS 22 Aug 20:21:18 20:24:37 66° 217° (SW) 20:27:55 145.800 FM
UKube-1 22 Aug 20:29:27 20:33:03 26° 67° (ENE) 20:36:39 145.840 MHz, 145.915 MHz
Sapphire 22 Aug 20:43:00 20:47:11 22° 316° (NW) 20:51:24 437.095 MHz 1200 baud AX-25 AFSK
Oscar 11 22 Aug 20:45:22 20:48:41 22° 66° (ENE) 20:52:02 145.825 FM, Beacon 2401.500 USB
RS-15 22 Aug 20:52:01 20:59:06 20° 261° (W) 21:06:23 29.354 - 29.394 USB, Beacon 29.352 USB
STRAND 1 22 Aug 21:04:41 21:08:12 19° 298° (WNW) 21:11:44 ?
PCSat 22 Aug 21:15:28 21:18:15 14° 323° (NW) 21:21:04 145.825 MHz
HO-68 22 Aug 21:49:03 21:55:41 40° 262° (W) 22:02:21 435.675 MHz FM
Oscar 10/S400 22 Aug 22:01:28 22:26:05 61° 174° (S) 07:09:33 145.825 - 145.975 CW/USB, Beacon 145.810 USB
UKube-1 22 Aug 22:05:19 22:09:08 30° 263° (W) 22:12:59 145.840 MHz, 145.915 MHz
Oscar 11 22 Aug 22:20:43 22:24:40 35° 263° (W) 22:28:40 145.825 FM, Beacon 2401.500 USB
FUNcube-1 22 Aug 22:21:37 22:25:46 90° 75° (ENE) 22:29:59 145.950 - 145.970 MHz USB
MaSat-1 22 Aug 22:55:35 22:56:56 11° 39° (NE) 22:58:15 437.345 MHz
AO-40 22 Aug 23:27:03 01:47:58 30° 203° (SSW) 06:18:10 Beacon 2401.320
Saudisat 1A 23 Aug 00:02:04 00:05:20 21° 112° (ESE) 00:08:38 436.775 MHz
MaSat-1 23 Aug 00:30:19 00:35:12 63° 61° (ENE) 00:39:27 437.345 MHz
KITSAT 1 23 Aug 00:37:53 00:45:24 44° 111° (ESE) 00:52:56 435.175 FM
Oscar 19 23 Aug 01:17:31 01:21:03 18° 91° (E) 01:24:33 437.125 CW, 437.150 USB
Saudisat 1A 23 Aug 01:40:24 01:44:37 45° 309° (NW) 01:48:53 436.775 MHz
Uribyol 2 23 Aug 01:42:54 01:45:38 14° 90° (E) 01:48:21 436.500 FM
Oscar 16 23 Aug 01:49:53 01:54:43 37° 97° (E) 01:59:30 437.025 USB, Beacon 2401.1428
AO-27 23 Aug 01:56:37 02:00:12 19° 92° (E) 02:03:47 436.795 MHz FM
Sapphire 23 Aug 02:03:40 02:06:06 13° 35° (NE) 02:08:31 437.095 MHz 1200 baud AX-25 AFSK
MaSat-1 23 Aug 02:09:10 02:11:32 14° 261° (W) 02:13:47 437.345 MHz
JAS-1B 23 Aug 02:11:36 02:17:26 25° 89° (E) 02:22:33 435.800 - 435.900 CW/SSB
KITSAT 1 23 Aug 02:33:00 02:40:45 48° 311° (NW) 02:48:32 435.175 FM
PCSat 23 Aug 02:33:09 02:37:11 21° 43° (NE) 02:41:11 145.825 MHz
TMSAT-1 23 Aug 02:33:28 02:35:56 13° 89° (E) 02:38:24 436.925 FM
AO-Echo 23 Aug 02:52:45 02:57:28 68° 102° (ESE) 03:02:07 ?
Oscar 19 23 Aug 02:55:39 03:00:45 57° 288° (WNW) 03:05:49 437.125 CW, 437.150 USB
ITAMSAT 1 23 Aug 03:08:10 03:13:22 85° 104° (ESE) 03:18:33 435.822 SSB
Gurwin Techsat 1B 23 Aug 03:14:00 03:19:05 44° 99° (E) 03:24:07 435.225 FM
Uribyol 2 23 Aug 03:20:27 03:25:37 71° 287° (WNW) 03:30:46 436.500 FM
Oscar 16 23 Aug 03:29:31 03:33:54 28° 294° (WNW) 03:38:18 437.025 USB, Beacon 2401.1428
OPAL 23 Aug 03:32:50 03:37:29 40° 66° (ENE) 03:42:13 ?
AO-27 23 Aug 03:35:00 03:40:03 55° 289° (WNW) 03:45:05 436.795 MHz FM
Sapphire 23 Aug 03:45:18 03:50:42 60° 57° (ENE) 03:56:03 437.095 MHz 1200 baud AX-25 AFSK
JAS-1B 23 Aug 04:01:22 04:08:41 56° 292° (WNW) 04:14:50 435.800 - 435.900 CW/SSB
TMSAT-1 23 Aug 04:11:09 04:16:27 78° 286° (WNW) 04:21:44 436.925 FM
AO-7 23 Aug 04:14:10 04:21:18 31° 96° (E) 04:28:21 29.400 - 29.500 MHz
PCSat 23 Aug 04:15:45 04:21:11 74° 243° (WSW) 04:26:34 145.825 MHz
AO-Echo 23 Aug 04:33:14 04:35:40 14° 299° (WNW) 04:38:06 ?
KITSAT 1 23 Aug 04:33:33 04:38:29 17° 337° (NNW) 04:43:25 435.175 FM
ITAMSAT 1 23 Aug 04:49:39 04:52:09 14° 302° (WNW) 04:54:39 435.822 SSB
Gurwin Techsat 1B 23 Aug 04:54:31 04:58:48 25° 296° (WNW) 05:03:04 435.225 FM
STRAND 1 23 Aug 05:05:46 05:07:41 12° 58° (ENE) 05:09:36 ?
OPAL 23 Aug 05:12:22 05:16:29 25° 263° (W) 05:20:40 ?
Uosat F 23 Aug 05:13:56 05:18:58 84° 104° (ESE) 05:23:58 435.120 FM
Sapphire 23 Aug 05:29:47 05:33:38 20° 254° (WSW) 05:37:28 437.095 MHz 1200 baud AX-25 AFSK
Hamsat 23 Aug 05:33:49 05:35:50 13° 90° (E) 05:37:49 145.90 MHz
SO-50 23 Aug 05:38:27 05:42:44 48° 118° (ESE) 05:47:07 436.795 FM
TMSAT-1 23 Aug 05:53:57 05:55:29 11° 304° (WNW) 05:57:01 436.925 FM
JAS-1B 23 Aug 05:55:20 05:57:16 11° 316° (NW) 05:59:09 435.800 - 435.900 CW/SSB
AO-7 23 Aug 06:06:23 06:14:30 61° 294° (WNW) 06:22:35 29.400 - 29.500 MHz
KITSAT 1 23 Aug 06:34:35 06:38:01 13° 9° (N) 06:41:27 435.175 FM
STRAND 1 23 Aug 06:40:58 06:46:05 87° 75° (ENE) 06:51:13 ?
UOSAT-12 23 Aug 06:46:28 06:49:45 20° 111° (ESE) 06:53:05 437.025 FM, 437.400 FM
JAS-2 23 Aug 06:52:18 06:57:29 70° 102° (ESE) 07:02:48 435.800 - 435.900 CW/SSB, 435.910 FM
Uosat F 23 Aug 06:54:47 06:57:03 13° 302° (WNW) 06:59:18 435.120 FM
RS-15 23 Aug 06:58:08 07:01:53 12° 95° (E) 07:05:36 29.354 - 29.394 USB, Beacon 29.352 USB
Hamsat 23 Aug 07:07:52 07:12:10 59° 286° (WNW) 07:16:26 145.90 MHz
SO-50 23 Aug 07:19:53 07:23:32 24° 317° (NW) 07:27:16 436.795 FM
SO-67 23 Aug 07:31:30 07:34:43 35° 97° (E) 07:37:54 435.3500 MHz FM
AO-7 23 Aug 08:01:27 08:05:38 15° 316° (NW) 08:09:49 29.400 - 29.500 MHz
STRAND 1 23 Aug 08:24:37 08:25:56 11° 272° (W) 08:27:15 ?
UOSAT-12 23 Aug 08:25:00 08:29:30 52° 308° (NW) 08:34:07 437.025 FM, 437.400 FM
Saudisat 1A 23 Aug 08:27:21 08:30:57 24° 44° (NE) 08:34:31 436.775 MHz
KITSAT 1 23 Aug 08:29:59 08:36:46 28° 38° (NE) 08:43:30 435.175 FM
JAS-2 23 Aug 08:39:10 08:42:03 15° 300° (WNW) 08:44:58 435.800 - 435.900 CW/SSB, 435.910 FM
RS-15 23 Aug 09:00:59 09:11:52 64° 115° (ESE) 09:22:34 29.354 - 29.394 USB, Beacon 29.352 USB
SO-67 23 Aug 09:05:36 09:07:28 14° 294° (WNW) 09:09:21 435.3500 MHz FM
HO-68 23 Aug 09:15:29 09:22:06 39° 98° (E) 09:28:40 435.675 MHz FM
UKube-1 23 Aug 09:52:25 09:56:33 41° 99° (E) 10:00:39 145.840 MHz, 145.915 MHz
Saudisat 1A 23 Aug 10:06:30 10:10:44 45° 242° (WSW) 10:14:55 436.775 MHz
Oscar 11 23 Aug 10:07:23 10:11:30 38° 98° (E) 10:15:34 145.825 FM, Beacon 2401.500 USB
UOSAT-12 23 Aug 10:09:21 10:10:46 11° 329° (NNW) 10:12:11 437.025 FM, 437.400 FM
FUNcube-1 23 Aug 10:10:51 10:13:50 17° 92° (E) 10:16:50 145.950 - 145.970 MHz USB
KITSAT 1 23 Aug 10:25:02 10:33:09 85° 241° (WSW) 10:41:12 435.175 FM
HO-68 23 Aug 11:03:11 11:09:49 43° 296° (WNW) 11:16:26 435.675 MHz FM
RS-15 23 Aug 11:14:27 11:24:46 43° 320° (NW) 11:35:05 29.354 - 29.394 USB, Beacon 29.352 USB
UKube-1 23 Aug 11:29:23 11:32:27 19° 296° (WNW) 11:35:31 145.840 MHz, 145.915 MHz
Oscar 11 23 Aug 11:44:12 11:47:26 21° 294° (WNW) 11:50:39 145.825 FM, Beacon 2401.500 USB
FUNcube-1 23 Aug 11:46:11 11:50:26 46° 288° (WNW) 11:54:45 145.950 - 145.970 MHz USB
KITSAT 1 23 Aug 12:22:33 12:27:20 17° 259° (W) 12:32:08 435.175 FM
SO-50 23 Aug 12:30:38 12:32:17 12° 32° (NNE) 12:33:56 436.795 FM
AO-Echo 23 Aug 12:30:48 12:33:00 13° 60° (ENE) 12:35:10 ?
Oscar 19 23 Aug 12:34:50 12:39:11 29° 66° (ENE) 12:43:34 437.125 CW, 437.150 USB
ITAMSAT 1 23 Aug 12:49:37 12:53:06 19° 61° (ENE) 12:56:35 435.822 SSB
JAS-1B 23 Aug 12:54:00 13:02:24 34° 60° (ENE) 13:10:16 435.800 - 435.900 CW/SSB
Gurwin Techsat 1B 23 Aug 13:00:53 13:01:57 11° 56° (NE) 13:03:01 435.225 FM
Uribyol 2 23 Aug 13:00:59 13:05:05 24° 64° (ENE) 13:09:11 436.500 FM
ISS 23 Aug 13:04:25 13:07:17 27° 136° (SE) 13:10:10 145.800 FM
Oscar 16 23 Aug 13:07:24 13:12:26 58° 72° (ENE) 13:17:31 437.025 USB, Beacon 2401.1428
AO-27 23 Aug 13:15:10 13:19:41 31° 66° (ENE) 13:24:12 436.795 MHz FM
AO-7 23 Aug 13:28:46 13:30:44 11° 40° (NE) 13:32:41 29.400 - 29.500 MHz
RS-15 23 Aug 13:32:57 13:41:03 23° 353° (N) 13:49:14 29.354 - 29.394 USB, Beacon 29.352 USB
TMSAT-1 23 Aug 13:54:15 13:58:22 24° 64° (ENE) 14:02:30 436.925 FM
AO-Echo 23 Aug 14:05:55 14:11:06 87° 256° (WSW) 14:16:08 ?
SO-50 23 Aug 14:09:12 14:13:54 54° 52° (NE) 14:18:38 436.795 FM
Oscar 19 23 Aug 14:13:39 14:18:23 37° 263° (W) 14:23:10 437.125 CW, 437.150 USB
MaSat-1 23 Aug 14:19:51 14:23:45 26° 104° (ESE) 14:27:54 437.345 MHz
ITAMSAT 1 23 Aug 14:27:00 14:32:07 61° 259° (WSW) 14:37:15 435.822 SSB
Gurwin Techsat 1B 23 Aug 14:35:41 14:40:58 73° 74° (ENE) 14:46:17 435.225 FM
Uribyol 2 23 Aug 14:39:23 14:44:18 44° 261° (W) 14:49:13 436.500 FM
ISS 23 Aug 14:40:45 14:43:55 41° 334° (NNW) 14:47:06 145.800 FM
JAS-1B 23 Aug 14:42:21 14:52:14 71° 258° (WSW) 15:01:35 435.800 - 435.900 CW/SSB
Oscar 16 23 Aug 14:48:47 14:52:10 18° 269° (W) 14:55:35 437.025 USB, Beacon 2401.1428
Uosat F 23 Aug 14:51:33 14:54:37 17° 61° (ENE) 14:57:41 435.120 FM
AO-27 23 Aug 14:54:27 14:59:07 34° 263° (W) 15:03:48 436.795 MHz FM
AO-7 23 Aug 15:13:37 15:21:25 46° 62° (ENE) 15:29:12 29.400 - 29.500 MHz
UOSAT-12 23 Aug 15:14:22 15:18:16 25° 43° (NE) 15:22:07 437.025 FM, 437.400 FM
TMSAT-1 23 Aug 15:32:54 15:37:59 47° 261° (W) 15:43:06 436.925 FM
RS-15 23 Aug 15:48:46 15:58:14 31° 29° (NNE) 16:07:53 29.354 - 29.394 USB, Beacon 29.352 USB
SO-50 23 Aug 15:50:39 15:54:06 20° 249° (WSW) 15:57:34 436.795 FM
MaSat-1 23 Aug 15:55:59 16:00:35 42° 303° (WNW) 16:05:31 437.345 MHz
Gurwin Techsat 1B 23 Aug 16:18:42 16:21:29 14° 271° (W) 16:24:17 435.225 FM
ISS 23 Aug 16:18:57 16:21:18 18° 353° (N) 16:23:39 145.800 FM
Uosat F 23 Aug 16:27:52 16:32:52 66° 258° (WSW) 16:37:52 435.120 FM
Hamsat 23 Aug 16:29:15 16:30:25 11° 61° (ENE) 16:31:34 145.90 MHz
JAS-1B 23 Aug 16:38:32 16:43:59 16° 275° (W) 16:49:19 435.800 - 435.900 CW/SSB
UOSAT-12 23 Aug 16:54:06 16:58:41 50° 242° (WSW) 17:03:10 437.025 FM, 437.400 FM
